User: anonymous   Login
Location: Unspecified
(0.0000°N, 0.0000°E)
Time: 16:03:22
(UTC+00:00)
Language:

ESSA 3 - Orbit

View from above orbital plane
View from above orbital plane
View from above satellite
View from above satellite

Ground track
Ground track

The orbit data is extracted from the following two-line orbital elements,

1  2435U 66087A   19015.77839154 -.00000046  00000-0 -31659-4 0  9991
2  2435 100.9756  62.8326 0064351  64.5672  45.7160 12.56840762399005
Epoch (UTC): 15 January 2019 18:40:53
Eccentricity: 0.0064351
inclination: 100.9756°
perigee height: 1386 km
apogee height: 1486 km
right ascension of ascending node: 62.8326°
argument of perigee: 64.5672°
revolutions per day: 12.56840762
mean anomaly at epoch: 45.7160°
orbit number at epoch: 39900

The dashed part of the orbit path shows where the satellite is in the earth's shadow,  

DLR